カタログに戻る

ASTRA 2F

運用中通信GEO
NORAD 38778·PAYLOAD·🇱🇺 Luxembourg

打ち上げ Sep 28, 2012 から Guiana Space Centre

Loading…

TLE

最新Source: CelesTrak SupGP

元期: Sep 13, 2026, 23:30 UTC

1 38778C 12051A   26256.97916667  .00000240  00000+0  00000+0 0  2564
2 38778   0.0639 255.3200 0004281 308.5753 169.7506  1.00272716    17

AllMySatでASTRA 2Fをリアルタイム追跡

Download on the App Store